SAS291 ENGM-ENBR

Flight info

Callsign SAS291
Flight time 0h 39m
Altitude 28000
Route ATLAP DCT AGEKU DCT PESUR
Aircraft A319/M-SDE3FGHIRWY/LB1

Departure

Time 2026-05-06 18:22
Airport Oslo-Gardermoen International Airport (ENGM)

Arrival

Time 2026-05-06 19:02
Airport Bergen Airport, Flesland (ENBR)
Time Latitude Longitude Altitude Speed Heading
2026-05-06 17:57 60.19668 11.09986 682 ft 0 kts 106°
2026-05-06 18:11 60.19670 11.09974 682 ft 2 kts 106°
2026-05-06 18:11 60.19676 11.09936 682 ft 3 kts 107°
2026-05-06 18:11 60.19682 11.09897 676 ft 3 kts 107°
2026-05-06 18:11 60.19684 11.09879 677 ft 0 kts 107°
2026-05-06 18:14 60.19683 11.09882 677 ft 1 kts 126°
2026-05-06 18:14 60.19676 11.09871 678 ft 3 kts 213°
2026-05-06 18:14 60.19688 11.09794 680 ft 10 kts 296°
2026-05-06 18:15 60.19729 11.09606 680 ft 18 kts 288°
2026-05-06 18:15 60.19765 11.09348 682 ft 21 kts 286°
2026-05-06 18:15 60.19809 11.09046 679 ft 24 kts 286°
2026-05-06 18:15 60.19864 11.08750 677 ft 19 kts 323°
2026-05-06 18:16 60.19988 11.08797 678 ft 20 kts 17°
2026-05-06 18:16 60.20123 11.08877 679 ft 20 kts 15°
2026-05-06 18:16 60.20223 11.08803 677 ft 17 kts 286°
2026-05-06 18:16 60.20244 11.08661 675 ft 2 kts 287°
2026-05-06 18:17 60.20246 11.08648 676 ft 0 kts 287°
2026-05-06 18:20 60.20251 11.08619 677 ft 6 kts 287°
2026-05-06 18:20 60.20273 11.08481 676 ft 13 kts 288°
2026-05-06 18:20 60.20258 11.08388 675 ft 0 kts 198°
2026-05-06 18:22 60.19996 11.08229 673 ft 82 kts 195°
2026-05-06 18:22 60.19202 11.07761 677 ft 155 kts 198°
2026-05-06 18:22 60.18169 11.07143 1320 ft 153 kts 197°
2026-05-06 18:23 60.17155 11.06505 2139 ft 153 kts 205°
2026-05-06 18:23 60.16320 11.05195 2819 ft 158 kts 233°
2026-05-06 18:23 60.15783 11.03139 3163 ft 178 kts 250°
2026-05-06 18:23 60.15286 11.00716 3503 ft 202 kts 248°
2026-05-06 18:24 60.14699 10.97956 3933 ft 228 kts 248°
2026-05-06 18:24 60.14127 10.94822 4524 ft 250 kts 259°
2026-05-06 18:24 60.14049 10.91247 5276 ft 267 kts 271°
2026-05-06 18:24 60.14071 10.87353 5797 ft 291 kts 271°
2026-05-06 18:25 60.14104 10.83124 6244 ft 315 kts 271°
2026-05-06 18:25 60.14143 10.78584 6673 ft 335 kts 270°
2026-05-06 18:25 60.14184 10.73855 7425 ft 342 kts 270°
2026-05-06 18:25 60.14224 10.69041 8273 ft 346 kts 270°
2026-05-06 18:26 60.14260 10.64187 9130 ft 350 kts 270°
2026-05-06 18:26 60.14294 10.59300 9982 ft 353 kts 269°
2026-05-06 18:26 60.14326 10.54347 10818 ft 354 kts 269°
2026-05-06 18:26 60.14357 10.49466 11667 ft 355 kts 269°
2026-05-06 18:27 60.14386 10.44513 12525 ft 355 kts 269°
2026-05-06 18:27 60.14414 10.39550 13402 ft 356 kts 269°
2026-05-06 18:27 60.14442 10.34575 14223 ft 357 kts 269°
2026-05-06 18:27 60.14470 10.29593 14997 ft 357 kts 269°
2026-05-06 18:28 60.14494 10.24605 15792 ft 357 kts 269°
2026-05-06 18:28 60.14517 10.19634 16571 ft 358 kts 269°
2026-05-06 18:28 60.14534 10.14628 17317 ft 358 kts 269°
2026-05-06 18:28 60.14551 10.09618 18057 ft 359 kts 269°
2026-05-06 18:29 60.14567 10.04666 18673 ft 360 kts 268°
2026-05-06 18:29 60.14577 9.99650 19255 ft 361 kts 268°
2026-05-06 18:29 60.14588 9.94584 19835 ft 363 kts 268°
2026-05-06 18:29 60.14597 9.89504 20395 ft 365 kts 268°
2026-05-06 18:30 60.14605 9.84399 20938 ft 367 kts 268°
2026-05-06 18:30 60.14618 9.79275 21481 ft 369 kts 269°
2026-05-06 18:30 60.14733 9.74118 22002 ft 371 kts 271°
2026-05-06 18:30 60.14943 9.68935 22501 ft 373 kts 273°
2026-05-06 18:31 60.15194 9.63805 22982 ft 375 kts 273°
2026-05-06 18:31 60.15461 9.58594 23474 ft 376 kts 273°
2026-05-06 18:31 60.15717 9.53355 23868 ft 378 kts 272°
2026-05-06 18:31 60.15950 9.48087 24248 ft 380 kts 272°
2026-05-06 18:32 60.16165 9.42787 24625 ft 382 kts 271°
2026-05-06 18:32 60.16369 9.37460 24963 ft 384 kts 271°
2026-05-06 18:32 60.16569 9.32100 25303 ft 386 kts 271°
2026-05-06 18:32 60.16771 9.26712 25641 ft 388 kts 271°
2026-05-06 18:33 60.16976 9.21293 25987 ft 389 kts 271°
2026-05-06 18:33 60.17181 9.15862 26329 ft 391 kts 271°
2026-05-06 18:33 60.17384 9.10405 26670 ft 393 kts 271°
2026-05-06 18:33 60.17589 9.04915 26978 ft 395 kts 270°
2026-05-06 18:34 60.17791 8.99417 27334 ft 395 kts 270°
2026-05-06 18:34 60.17990 8.93941 27748 ft 395 kts 270°
2026-05-06 18:34 60.18185 8.88492 28222 ft 393 kts 270°
2026-05-06 18:34 60.18377 8.83037 28692 ft 391 kts 270°
2026-05-06 18:35 60.18567 8.77587 29166 ft 390 kts 270°
2026-05-06 18:35 60.18753 8.72153 29656 ft 388 kts 269°
2026-05-06 18:35 60.18940 8.66749 30127 ft 387 kts 269°
2026-05-06 18:35 60.19123 8.61360 30483 ft 387 kts 269°
2026-05-06 18:36 60.19242 8.57770 30687 ft 389 kts 269°
2026-05-06 18:36 60.19419 8.52342 30965 ft 391 kts 270°
2026-05-06 18:36 60.19593 8.46889 31250 ft 393 kts 270°
2026-05-06 18:36 60.19767 8.41388 31530 ft 394 kts 270°
2026-05-06 18:37 60.19997 8.34076 31899 ft 397 kts 270°
2026-05-06 18:37 60.20115 8.30325 31984 ft 398 kts 270°
2026-05-06 18:37 60.20513 8.17419 32019 ft 398 kts 270°
2026-05-06 18:38 60.20792 8.08098 32018 ft 398 kts 270°
2026-05-06 18:38 60.21119 7.97062 32024 ft 399 kts 270°
2026-05-06 18:39 60.21429 7.85995 31974 ft 388 kts 270°
2026-05-06 18:39 60.21576 7.80657 31780 ft 377 kts 270°
2026-05-06 18:40 60.21853 7.70177 30491 ft 375 kts 269°
2026-05-06 18:40 60.21989 7.64955 29882 ft 371 kts 269°
2026-05-06 18:40 60.22122 7.59814 29256 ft 366 kts 269°
2026-05-06 18:40 60.22254 7.54727 28628 ft 361 kts 269°
2026-05-06 18:41 60.22381 7.49723 27999 ft 357 kts 270°
2026-05-06 18:41 60.22501 7.44815 27141 ft 358 kts 270°
2026-05-06 18:41 60.22618 7.39800 26412 ft 356 kts 270°
2026-05-06 18:41 60.22732 7.34936 26265 ft 341 kts 270°
2026-05-06 18:42 60.22844 7.30242 25924 ft 332 kts 270°
2026-05-06 18:42 60.22953 7.25641 25443 ft 327 kts 270°
2026-05-06 18:42 60.23056 7.21077 24859 ft 326 kts 270°
2026-05-06 18:42 60.23157 7.16511 24095 ft 329 kts 270°
2026-05-06 18:43 60.23260 7.11898 23165 ft 336 kts 271°
2026-05-06 18:43 60.23365 7.07159 22371 ft 335 kts 271°
2026-05-06 18:43 60.23465 7.02547 21672 ft 333 kts 271°
2026-05-06 18:43 60.23562 6.97905 21010 ft 331 kts 271°
2026-05-06 18:44 60.23656 6.93294 20386 ft 329 kts 271°
2026-05-06 18:44 60.23749 6.88718 19768 ft 327 kts 271°
2026-05-06 18:44 60.23842 6.84223 19577 ft 314 kts 271°
2026-05-06 18:44 60.23929 6.79953 19441 ft 299 kts 271°
2026-05-06 18:45 60.24010 6.75852 19318 ft 286 kts 271°
2026-05-06 18:45 60.24083 6.71934 19185 ft 274 kts 271°
2026-05-06 18:45 60.24150 6.68194 18970 ft 266 kts 271°
2026-05-06 18:45 60.24218 6.64482 18636 ft 264 kts 271°
2026-05-06 18:46 60.24362 6.60858 18309 ft 263 kts 277°
2026-05-06 18:46 60.24784 6.57279 17870 ft 264 kts 285°
2026-05-06 18:46 60.25479 6.53846 17354 ft 266 kts 292°
2026-05-06 18:46 60.26307 6.50499 16751 ft 268 kts 292°
2026-05-06 18:47 60.27134 6.47121 16327 ft 268 kts 293°
2026-05-06 18:47 60.27957 6.43746 15895 ft 269 kts 293°
2026-05-06 18:47 60.28781 6.40361 15502 ft 269 kts 293°
2026-05-06 18:47 60.29608 6.36963 15068 ft 271 kts 294°
2026-05-06 18:48 60.30438 6.33549 14643 ft 272 kts 294°
2026-05-06 18:48 60.31272 6.30116 14242 ft 273 kts 294°
2026-05-06 18:48 60.32099 6.26710 13826 ft 274 kts 295°
2026-05-06 18:48 60.32937 6.23248 13366 ft 275 kts 295°
2026-05-06 18:49 60.33775 6.19771 12929 ft 275 kts 295°
2026-05-06 18:49 60.34611 6.16295 12535 ft 274 kts 295°
2026-05-06 18:49 60.35443 6.12839 12142 ft 274 kts 295°
2026-05-06 18:49 60.36274 6.09394 11781 ft 273 kts 295°
2026-05-06 18:50 60.37104 6.05952 11401 ft 272 kts 295°
2026-05-06 18:50 60.37929 6.02523 11023 ft 271 kts 295°
2026-05-06 18:50 60.38752 5.99095 10670 ft 270 kts 295°
2026-05-06 18:50 60.39566 5.95692 10322 ft 269 kts 295°
2026-05-06 18:51 60.40370 5.92328 9969 ft 268 kts 295°
2026-05-06 18:51 60.41168 5.88975 9715 ft 263 kts 295°
2026-05-06 18:51 60.41948 5.85694 9579 ft 255 kts 295°
2026-05-06 18:51 60.42704 5.82515 9435 ft 247 kts 295°
2026-05-06 18:52 60.43435 5.79435 9289 ft 239 kts 295°
2026-05-06 18:52 60.44141 5.76430 9092 ft 234 kts 295°
2026-05-06 18:52 60.44838 5.73462 8835 ft 232 kts 294°
2026-05-06 18:52 60.45534 5.70510 8554 ft 232 kts 295°
2026-05-06 18:53 60.46229 5.67575 8261 ft 231 kts 295°
2026-05-06 18:53 60.46720 5.64543 7955 ft 229 kts 282°
2026-05-06 18:53 60.47071 5.61396 7628 ft 229 kts 282°
2026-05-06 18:53 60.47426 5.58261 7338 ft 228 kts 282°
2026-05-06 18:54 60.47783 5.55127 7060 ft 227 kts 283°
2026-05-06 18:54 60.48138 5.52015 6774 ft 226 kts 282°
2026-05-06 18:54 60.48489 5.48919 6462 ft 225 kts 282°
2026-05-06 18:54 60.48837 5.45822 6168 ft 225 kts 282°
2026-05-06 18:55 60.49180 5.42730 5858 ft 224 kts 282°
2026-05-06 18:55 60.49518 5.39666 5560 ft 223 kts 282°
2026-05-06 18:55 60.49815 5.36582 5249 ft 222 kts 276°
2026-05-06 18:55 60.49932 5.33474 4948 ft 221 kts 273°
2026-05-06 18:56 60.50018 5.30401 4651 ft 220 kts 273°
2026-05-06 18:56 60.50099 5.27271 4343 ft 220 kts 273°
2026-05-06 18:56 60.50177 5.24221 4076 ft 218 kts 273°
2026-05-06 18:56 60.50254 5.21183 3839 ft 214 kts 273°
2026-05-06 18:57 60.50131 5.18232 3626 ft 209 kts 249°
2026-05-06 18:57 60.49243 5.16005 3405 ft 206 kts 210°
2026-05-06 18:57 60.47865 5.15520 3211 ft 207 kts 174°
2026-05-06 18:57 60.46435 5.16012 3062 ft 207 kts 171°
2026-05-06 18:58 60.45018 5.16515 2997 ft 202 kts 172°
2026-05-06 18:58 60.43669 5.16979 2894 ft 192 kts 172°
2026-05-06 18:58 60.42359 5.17422 2673 ft 191 kts 172°
2026-05-06 18:58 60.41079 5.17856 2423 ft 185 kts 172°
2026-05-06 18:59 60.39857 5.18270 2188 ft 174 kts 172°
2026-05-06 18:59 60.38695 5.18662 1936 ft 166 kts 172°
2026-05-06 18:59 60.37560 5.19044 1714 ft 164 kts 172°
2026-05-06 18:59 60.36431 5.19425 1463 ft 164 kts 172°
2026-05-06 19:00 60.35316 5.19801 1245 ft 158 kts 172°
2026-05-06 19:00 60.34276 5.20152 1011 ft 146 kts 172°
2026-05-06 19:00 60.33301 5.20480 801 ft 142 kts 171°
2026-05-06 19:00 60.32349 5.20800 598 ft 138 kts 171°
2026-05-06 19:01 60.31387 5.21140 407 ft 140 kts 171°
2026-05-06 19:01 60.30438 5.21460 221 ft 140 kts 171°
2026-05-06 19:01 60.29576 5.21735 148 ft 109 kts 170°
2026-05-06 19:01 60.28971 5.21937 163 ft 69 kts 171°
2026-05-06 19:02 60.28693 5.22036 162 ft 16 kts 161°
2026-05-06 19:02 60.28672 5.22226 164 ft 10 kts 79°
2026-05-06 19:02 60.28676 5.22260 165 ft 0 kts 78°
2026-05-06 19:03 60.28681 5.22303 166 ft 7 kts 78°
2026-05-06 19:03 60.28701 5.22465 172 ft 16 kts 69°
2026-05-06 19:03 60.28725 5.22677 174 ft 15 kts 77°
2026-05-06 19:03 60.28774 5.22801 175 ft 10 kts 78°
2026-05-06 19:04 60.28780 5.22885 176 ft 0 kts 82°
2026-05-06 19:04 60.28781 5.22896 176 ft 0 kts 82°